SKYSAT-C11 (42987 NORAD) Tracking and Keplerian Element Data

This shows tracking and keplerian element data for the satellite.

Feedback or suggestion? Click here.




ElementValue
Catalog42987
NameSKYSAT-C11
Epoch Orbit6213
Epoch Day348.8471922
Epoch Year2018
RAAN100.016
Inclination97.4184
Eccentricity0.0010687
Argument of Perigee144.1595
Mean Anonmoly216.036
Mean Motion15.21608218
Decay Rate4.82E-06
L11 42987U 17068A 18348.84719220 .00000482 00000-0 24390-4 0 9995
L22 42987 97.4184 100.0160 0010687 144.1595 216.0360 15.21608218 62138

Live tracking and technical data element details for SKYSAT-C11 (NORAD 42987). SKYSAT-C11 can be tracked NOW for your location showing map with azimuth and elevation plus other details from your city location.

Track the satellite on the map from your city or location and see movement details for azimuth, elevation, latitude, longitude, range, height, and movement on the map or in text.







IsCatalogInMostPopularTable: catalog: 42987, numindb: 145
Update: records affected: 1



GetName: 42987 SKYSAT-C11

Hit Count: updated at: Sat, 15 Dec 2018 13:13:16 GMT